Ellensburg, WA
on Wednesday, January 16, 2013

Wednesday
Previous Day Next Day
Daily Summary
 ActualAverage (KYKM)Record (KYKM)
Temperature
Mean Temperature °F 31°F  
Max Temperature 32°F 39°F 60°F (2011)
Min Temperature 17°F 23°F -14°F (1950)
Degree Days
Heating Degree Days 40 34  
Month to date heating degree days 568  
Since 1 July heating degree days 3231  
Cooling Degree Days 0 0  
Month to date cooling degree days 0  
Year to date cooling degree days 0  
Moisture
Dew Point 19°F   
Average Humidity 75    
Maximum Humidity 81    
Minimum Humidity 64    
Precipitation
Precipitation 0.00 in 0.03 in 0.67 in (1954)
Month to date precipitation 0.65  
Year to date precipitation 0.65  
Snow
Snow 0.00 in 0.20 in 6.90 in (1954)
Month to date snowfall 3.4  
Year to date snowfall 3.4  
Since 1 July snowfall 16.4  
Snow Depth in   
Wind
Wind Speed 2 mph   
Max Wind Speed 18 mph   
Max Gust Speed mph   
Visibility 8 miles   
Events     

Key: T is trace of precipitation, MM is missing value
Source: NWS Daily Summary
Time(PST)TemperatureDew PointHumidity Pressure Visibility Wind DirectionWind SpeedGust SpeedPrecipitationEvents Conditions
12:53 AM 19.9°F 14.0°F 78% 30.55 in 8.0 miles ENE 3.5 mph - N/A   Clear
1:53 AM 17.1°F 12.0°F 81% 30.55 in 7.0 miles Calm Calm - N/A   Clear
2:53 AM 17.1°F 12.0°F 81% 30.56 in 9.0 miles Calm Calm - N/A   Clear
4:53 AM 19.9°F 12.9°F 74% 30.54 in 10.0 miles Calm Calm - N/A   Clear
5:53 AM 19.0°F 10.9°F 71% 30.55 in 10.0 miles Calm Calm - N/A   Clear
6:53 AM 19.0°F 12.9°F 77% 30.57 in 9.0 miles Calm Calm - N/A   Clear
7:53 AM 21.9°F 16.0°F 78% 30.59 in 6.0 miles ESE 18.4 mph - N/A   Haze
8:53 AM 21.0°F 15.1°F 78% 30.62 in 6.0 miles SSE 5.8 mph - N/A   Haze
9:53 AM 25.0°F 17.1°F 72% 30.63 in 7.0 miles Calm Calm - N/A   Clear
10:53 AM 28.0°F 18.0°F 66% 30.63 in 7.0 miles Calm Calm - N/A   Clear
11:47 AM 30.2°F 21.2°F 69% 30.53 in 8.0 miles Calm Calm - N/A   Mostly Cloudy
11:53 AM 30.9°F 21.0°F 67% 30.60 in 8.0 miles Calm Calm - N/A   Mostly Cloudy
12:15 PM 30.2°F 19.4°F 64% 30.52 in 8.0 miles Calm Calm - N/A   Scattered Clouds
12:53 PM 30.9°F 19.9°F 64% 30.58 in 8.0 miles West 3.5 mph - N/A   Clear
1:53 PM 30.9°F 19.9°F 64% 30.58 in 8.0 miles Calm Calm - N/A   Clear
2:53 PM 32.0°F 21.9°F 66% 30.58 in 8.0 miles ENE 3.5 mph - N/A   Clear
3:53 PM 30.0°F 21.9°F 72% 30.58 in 8.0 miles East 4.6 mph - N/A   Clear
4:53 PM 26.1°F 19.0°F 75% 30.58 in 6.0 miles Calm Calm - N/A   Haze
5:53 PM 26.1°F 21.0°F 81% 30.59 in 9.0 miles East 6.9 mph - N/A   Scattered Clouds
6:00 PM 26.6°F 21.2°F 80% 30.51 in 9.0 miles East 6.9 mph - N/A   Mostly Cloudy
6:15 PM 24.8°F 19.4°F 80% 30.51 in 9.0 miles East 5.8 mph - N/A   Scattered Clouds
6:26 PM 24.8°F 19.4°F 80% 30.51 in 9.0 miles ESE 4.6 mph - N/A   Mostly Cloudy
6:50 PM 26.6°F 19.4°F 74% 30.51 in 9.0 miles Calm Calm - N/A   Overcast
6:53 PM 26.1°F 19.9°F 78% 30.59 in 9.0 miles Calm Calm - N/A   Overcast
7:53 PM 28.0°F 21.9°F 78% 30.60 in 8.0 miles Calm Calm - N/A   Overcast
8:53 PM 28.0°F 21.9°F 78% 30.59 in 7.0 miles Calm Calm - N/A   Overcast
9:53 PM 27.0°F 21.9°F 81% 30.60 in 6.0 miles Calm Calm - N/A   Haze
10:29 PM 28.4°F 21.2°F 74% 30.52 in 6.0 miles Calm Calm - N/A   Haze
10:53 PM 27.0°F 21.9°F 81% 30.59 in 6.0 miles Calm Calm - N/A   Haze
11:53 PM 28.0°F 21.9°F 78% 30.59 in 9.0 miles Calm Calm - N/A   Overcast
Moon Phase
Jan. 16 Jan. 18 Jan. 26 Feb. 03 Feb. 10
Sunrise:07:42 AM (PST) Moon Rise:09:56 AM (PST)1/16
Sunset:04:41 PM (PST) Moon Set:11:05 PM (PST)1/16

Copyright © 2014 The Weather Underground, Inc.